CAPE
0 0 0 0 0 45 42 88 55 6 37 126 1 0 0 0 0 0 0 0 0 318 419 90 273 231 154 230 311 328 265 314 455 605 751 809 713 494 408 390 476 527 583 595 700 767 762 768 678
0 0 0 0 0 0 0 53 2 0 31 181 12 56 0 0 71 37 21 0 8 427 307 7 306 271 217 240 238 170 340 551 553 604 634 615 382 283 219 299 360 356 370 335 353 355 431 593 737
0 0 0 0 0 0 0 0 0 7 35 365 316 185 14 17 75 92 27 24 218 445 271 67 328 466 299 300 343 303 382 488 470 429 414 270 177 158 160 220 239 223 146 94 78 52 63 98 176
0 0 0 0 0 0 0 0 0 24 36 141 349 171 216 265 219 144 143 158 225 223 177 240 360 519 358 512 589 556 550 405 290 266 225 186 142 129 128 154 229 202 79 47 30 1 14 5 0
0 0 0 0 0 0 0 0 0 3 0 22 160 177 288 322 245 189 211 163 130 138 114 197 381 539 483 622 677 544 439 298 244 218 219 200 123 0 0 6 25 40 37 84 110 89 74 70 83
0 0 0 0 0 0 0 0 0 0 11 68 151 108 237 304 288 323 296 152 95 110 99 171 395 510 570 588 774 509 443 317 261 202 152 88 0 0 0 0 0 52 96 201 330 278 245 254 338
0 0 0 0 0 0 0 0 0 5 25 50 133 67 202 261 328 350 323 145 89 152 137 205 158 494 676 664 833 569 456 322 288 199 137 59 0 0 0 0 45 222 270 252 312 233 172 137 142
0 0 0 0 0 0 0 0 0 1 7 289 316 107 53 210 244 329 254 98 53 136 152 57 33 127 318 510 808 625 441 344 289 216 136 72 0 0 0 7 91 262 164 137 127 160 296 389 383
0 0 0 0 0 0 0 0 4 144 63 85 219 330 196 215 283 212 125 77 63 97 130 14 33 62 144 201 498 681 521 399 328 289 197 85 38 28 40 132 145 331 271 224 309 447 360 88 262
0 0 0 0 0 0 0 0 0 0 1 3 7 102 91 259 248 114 93 58 25 52 122 5 48 183 303 351 348 389 280 264 254 283 333 164 84 56 71 131 308 535 444 286 435 270 74 224 481
0 0 0 0 0 0 0 0 0 0 0 0 0 0 196 288 203 142 109 2 7 30 67 28 118 445 463 232 371 407 329 369 525 507 420 309 65 79 121 253 453 939 364 593 332 176 355 574 592
0 0 0 0 0 0 0 0 0 0 0 0 0 27 262 264 266 170 40 0 0 0 26 72 123 556 564 335 484 439 337 445 356 306 464 204 86 93 159 221 423 982 676 462 275 113 67 173 614
0 0 0 0 0 0 0 0 0 0 0 0 5 34 215 369 425 356 126 16 12 12 42 56 110 395 559 777 489 430 344 419 302 360 326 87 68 59 440 409 545 665 371 303 131 0 0 42 415
0 0 0 0 0 0 0 0 0 0 0 0 0 4 188 510 486 378 340 117 17 9 47 70 107 283 347 447 561 514 467 417 556 332 230 114 58 274 639 416 395 250 147 107 15 0 0 0 416
0 0 0 0 0 0 0 0 0 0 0 0 121 90 187 208 333 350 334 193 30 1 22 65 61 134 275 345 598 606 557 497 469 324 258 109 69 456 411 263 150 61 0 0 0 0 0 0 205
0 0 0 0 0 0 0 0 0 2 1 68 331 357 207 104 61 226 341 326 206 49 15 57 41 100 240 384 447 484 497 475 395 295 185 112 118 370 243 162 62 0 0 0 0 0 0 0 8
0 0 0 0 0 0 0 0 0 76 140 54 98 155 212 227 195 169 340 366 345 259 142 48 96 106 148 305 410 402 380 374 318 209 133 96 153 203 145 88 0 0 0 0 0 0 0 0 0
0 0 0 0 0 0 0 0 0 0 0 0 5 20 43 76 99 192 142 263 394 291 241 188 125 154 218 285 402 272 224 247 205 97 76 62 155 83 43 0 0 0 0 0 0 0 0 0 0
0 0 0 0 0 0 0 0 0 0 0 0 0 0 0 0 0 41 205 91 345 367 272 232 205 204 192 195 135 131 74 99 67 60 34 29 40 1 0 0 0 0 0 0 0 0 0 0 0
0 0 0 0 0 0 0 0 0 0 0 0 0 0 0 0 2 4 8 174 195 422 334 269 233 220 168 97 32 29 50 10 0 0 0 0 0 0 0 0 0 0 0 0 0 0 0 0 0
0 0 0 0 0 0 0 0 0 0 0 0 0 0 0 2 1 2 1 3 227 159 278 239 234 188 87 51 18 0 0 0 0 0 0 0 0 0 0 0 0 0 0 0 0 0 0 0 0
0 0 0 0 0 0 0 0 0 0 0 0 0 0 0 1 2 4 3 3 5 290 139 132 114 152 60 31 0 0 0 0 0 0 0 0 0 0 0 0 0 0 0 0 0 0 0 0 0
0 0 0 0 0 0 0 0 0 0 0 0 0 0 0 0 1 2 2 1 64 226 208 97 50 50 77 13 0 0 0 0 0 0 0 0 0 0 0 0 0 0 0 0 0 0 0 0 0
0 0 0 0 0 0 0 0 0 0 0 0 0 0 0 0 1 1 2 0 2 72 169 143 88 39 14 13 11 0 7 0 0 1 3 0 0 0 0 0 0 0 0 0 0 0 0 0 0
0 0 0 0 0 0 0 0 0 0 0 0 0 0 0 0 0 2 3 1 1 2 2 0 0 1 1 0 1 1 1 2 3 3 2 1 0 0 0 0 0 0 0 0 0 0 0 0 0
0 0 0 0 0 0 0 0 0 0 0 0 0 0 0 0 0 2 2 3 4 3 4 4 0 0 0 0 0 0 0 1 1 0 0 1 1 1 1 0 0 0 0 0 0 0 0 0 0
0 0 0 0 0 0 0 0 0 0 0 0 0 0 0 0 0 0 0 1 3 3 1 0 0 0 0 0 0 0 0 0 0 0 0 0 0 2 0 0 0 0 0 0 0 0 0 0 0
0 0 0 0 0 0 0 0 0 0 0 0 0 0 0 0 0 1 3 0 1 1 1 2 1 1 1 1 0 1 0 0 0 0 0 0 0 0 0 0 0 0 0 0 0 0 0 0 0
0 0 0 0 0 0 0 0 0 0 0 0 0 0 0 0 0 0 2 3 1 0 0 1 1 1 0 1 2 2 2 1 0 0 1 0 0 0 0 0 0 0 0 0 0 0 0 0 0
0 0 0 0 0 0 0 0 0 0 0 0 0 0 0 0 0 2 1 1 1 0 1 3 2 2 2 2 1 1 1 3 3 1 0 1 0 0 0 0 0 0 0 0 0 0 0 0 0
CIN
-0 -0 -0 -0 -0 -149 -103 -96 -165 -248 -230 -194 -60 -0 -0 -0 -0 -0 -0 -0 -0 -125 -69 -107 -42 -27 -40 -30 -28 -33 -47 -42 -30 -30 -28 -18 -23 -43 -50 -46 -39 -39 -37 -41 -39 -38 -40 -38 -43
-0 -0 -0 -0 -0 -0 -0 -160 -115 -0 -239 -189 -299 -218 -0 -0 -269 -377 -459 -0 -52 -109 -83 -0 -46 -23 -25 -28 -41 -66 -40 -19 -29 -32 -32 -31 -53 -66 -73 -59 -52 -53 -50 -59 -63 -65 -63 -53 -49
-0 -0 -0 -0 -0 -0 -0 -0 -0 -110 -213 -131 -111 -166 -248 -251 -329 -402 -456 -419 -243 -120 -90 -115 -35 -2 -15 -21 -27 -43 -38 -36 -46 -54 -57 -68 -79 -84 -75 -69 -59 -64 -77 -95 -106 -121 -111 -107 -98
-0 -0 -0 -0 -0 -0 -0 -0 -0 -113 -203 -189 -126 -111 -228 -290 -310 -421 -406 -354 -282 -201 -148 -79 -12 -0 -14 -10 -16 -23 -33 -52 -70 -71 -76 -75 -81 -83 -77 -81 -72 -64 -97 -126 -131 -20 -149 -71 -0
-0 -0 -0 -0 -0 -0 -0 -0 -0 -84 -30 -211 -147 -102 -117 -286 -363 -406 -387 -353 -334 -264 -181 -103 -38 -0 -8 -11 -13 -29 -48 -64 -69 -76 -75 -73 -85 -0 -0 -26 -129 -138 -130 -116 -112 -115 -127 -132 -139
-0 -0 -0 -0 -0 -0 -0 -0 -0 -0 -143 -176 -142 -152 -174 -334 -338 -317 -336 -386 -357 -299 -232 -148 -50 -10 -6 -8 -9 -42 -52 -67 -76 -87 -104 -103 -0 -0 -0 -0 -0 -131 -114 -104 -89 -99 -108 -105 -102
-0 -0 -0 -0 -0 -0 -0 -0 -0 -34 -131 -151 -169 -140 -286 -347 -302 -303 -343 -434 -442 -262 -207 -137 -128 -16 -6 -8 -5 -45 -62 -76 -81 -98 -130 -127 -0 -0 -0 -0 -135 -97 -92 -101 -96 -115 -130 -134 -143
-0 -0 -0 -0 -0 -0 -0 -0 -11 -149 -82 -231 -213 -136 -176 -331 -364 -316 -289 -423 -526 -324 -265 -247 -225 -112 -39 -14 -9 -42 -75 -81 -82 -102 -121 -140 -0 -0 -0 -43 -139 -100 -121 -150 -150 -137 -109 -101 -105
-0 -0 -0 -0 -0 -0 -0 -0 -178 -244 -221 -265 -249 -259 -366 -407 -392 -364 -401 -421 -493 -401 -308 -381 -301 -202 -75 -42 -27 -34 -62 -75 -82 -86 -117 -145 -118 -138 -117 -121 -150 -98 -96 -101 -85 -84 -101 -159 -119
-0 -0 -0 -0 -0 -0 -0 -0 -0 -0 -73 -127 -145 -448 -530 -438 -384 -438 -410 -456 -506 -492 -408 -488 -364 -208 -50 -34 -34 -34 -61 -63 -75 -76 -76 -111 -113 -130 -94 -103 -111 -79 -80 -89 -78 -105 -133 -87 -37
-0 -0 -0 -0 -0 -0 -0 -0 -0 -0 -0 -0 -0 -0 -463 -437 -426 -427 -401 -106 -633 -533 -387 -438 -342 -160 -68 -80 -37 -34 -51 -50 -59 -73 -78 -89 -129 -123 -79 -75 -55 -34 -90 -36 -57 -82 -46 -33 -31
-0 -0 -0 -0 -0 -0 -0 -0 -0 -0 -0 -0 -0 -389 -383 -438 -410 -437 -534 -0 -0 -0 -484 -408 -318 -118 -57 -54 -41 -53 -69 -61 -80 -94 -86 -127 -139 -127 -98 -91 -59 -37 -44 -56 -68 -114 -129 -89 -47
-0 -0 -0 -0 -0 -0 -0 -0 -0 -0 -0 -0 -461 -454 -395 -383 -368 -373 -445 -621 -612 -572 -518 -498 -393 -192 -60 -4 -32 -46 -74 -71 -86 -90 -103 -172 -147 -134 -66 -63 -42 -44 -77 -69 -93 -0 -0 -119 -55
-0 -0 -0 -0 -0 -0 -0 -0 -0 -0 -0 -0 -0 -159 -366 -316 -328 -361 -334 -428 -485 -536 -520 -492 -454 -251 -171 -59 -26 -49 -52 -68 -63 -87 -113 -154 -139 -92 -54 -69 -64 -85 -129 -110 -33 -0 -0 -0 -52
-0 -0 -0 -0 -0 -0 -0 -0 -0 -0 -0 -0 -350 -391 -324 -324 -288 -290 -259 -282 -331 -250 -425 -471 -444 -288 -172 -147 -59 -35 -35 -51 -59 -77 -115 -177 -160 -81 -82 -83 -119 -138 -0 -0 -0 -0 -0 -0 -89
-0 -0 -0 -0 -0 -0 -0 -0 -0 -18 -38 -341 -393 -374 -393 -451 -419 -322 -268 -247 -256 -324 -417 -369 -386 -337 -212 -131 -135 -86 -56 -66 -75 -92 -120 -186 -187 -105 -109 -109 -131 -0 -0 -0 -0 -0 -0 -0 -117
-0 -0 -0 -0 -0 -0 -0 -0 -0 -320 -289 -425 -476 -459 -402 -360 -347 -349 -250 -234 -248 -264 -278 -321 -278 -332 -299 -185 -106 -117 -88 -73 -100 -122 -159 -179 -158 -143 -149 -143 -0 -0 -0 -0 -0 -0 -0 -0 -0
-0 -0 -0 -0 -0 -0 -0 -0 -0 -0 -0 -0 -167 -539 -541 -504 -454 -371 -360 -270 -208 -236 -265 -203 -208 -179 -149 -143 -103 -92 -114 -120 -151 -208 -212 -208 -159 -178 -183 -0 -0 -0 -0 -0 -0 -0 -0 -0 -0
-0 -0 -0 -0 -0 -0 -0 -0 -0 -0 -0 -0 -0 -0 -0 -2 -2 -532 -332 -390 -218 -206 -236 -256 -222 -179 -144 -124 -205 -194 -267 -234 -313 -308 -299 -278 -215 -83 -0 -0 -0 -0 -0 -0 -0 -0 -0 -0 -0
-0 -0 -0 -0 -0 -0 -0 -0 -0 -0 -0 -0 -0 -0 -0 -0 -0 -0 -509 -312 -299 -207 -235 -247 -265 -259 -248 -203 -188 -189 -243 -316 -0 -0 -0 -0 -0 -0 -0 -0 -0 -0 -0 -0 -0 -0 -0 -0 -0
-0 -0 -0 -0 -0 -0 -0 -0 -0 -0 -0 -0 -0 -0 -0 -0 -0 -0 -0 -0 -280 -336 -304 -292 -233 -217 -266 -297 -239 -0 -0 -0 -0 -0 -0 -0 -0 -0 -0 -0 -0 -0 -0 -0 -0 -0 -0 -0 -0
-0 -0 -0 -0 -0 -0 -0 -0 -0 -0 -0 -0 -0 -0 -0 -0 -0 -0 -0 -0 -100 -296 -366 -391 -326 -226 -204 -185 -32 -0 -0 -0 -0 -37 -0 -0 -0 -0 -0 -0 -0 -0 -0 -0 -0 -0 -0 -0 -0
-0 -0 -0 -0 -0 -0 -0 -0 -0 -0 -0 -0 -0 -0 -0 -0 -0 -0 -0 -0 -365 -234 -217 -306 -218 -181 -130 -128 -0 -0 -0 -0 -0 -0 -0 -0 -0 -0 -0 -0 -0 -0 -0 -0 -0 -0 -0 -0 -0
-0 -0 -0 -0 -0 -0 -0 -0 -0 -0 -0 -0 -0 -0 -0 -0 -0 -0 -0 -0 -37 -180 -94 -112 -100 -149 -131 -84 -102 -0 -113 -0 -0 -0 -0 -0 -0 -0 -0 -0 -0 -0 -0 -0 -0 -0 -0 -0 -0
-0 -0 -0 -0 -0 -0 -0 -0 -0 -0 -0 -0 -0 -0 -0 -0 -0 -0 -0 -0 -0 -39 -22 -0 -0 -0 -0 -0 -0 -0 -0 -0 -0 -0 -0 -0 -0 -0 -0 -0 -0 -0 -0 -0 -0 -0 -0 -0 -0
-0 -0 -0 -0 -0 -0 -0 -0 -0 -0 -0 -0 -0 -0 -0 -0 -0 -0 -0 -0 -0 -0 -0 -0 -0 -0 -0 -0 -0 -0 -0 -0 -0 -0 -0 -0 -0 -0 -0 -0 -0 -0 -0 -0 -0 -0 -0 -0 -0
-0 -0 -0 -0 -0 -0 -0 -0 -0 -0 -0 -0 -0 -0 -0 -0 -0 -0 -0 -0 -0 -0 -0 -0 -0 -0 -0 -0 -0 -0 -0 -0 -0 -0 -0 -0 -0 -0 -0 -0 -0 -0 -0 -0 -0 -0 -0 -0 -0
-0 -0 -0 -0 -0 -0 -0 -0 -0 -0 -0 -0 -0 -0 -0 -0 -0 -0 -0 -0 -0 -0 -0 -0 -0 -0 -0 -0 -0 -0 -0 -0 -0 -0 -0 -0 -0 -0 -0 -0 -0 -0 -0 -0 -0 -0 -0 -0 -0
-0 -0 -0 -0 -0 -0 -0 -0 -0 -0 -0 -0 -0 -0 -0 -0 -0 -0 -0 -0 -0 -0 -0 -0 -0 -0 -0 -0 -0 -0 -0 -0 -0 -0 -0 -0 -0 -0 -0 -0 -0 -4 -0 -0 -0 -0 -0 -0 -0
-0 -0 -0 -0 -0 -0 -0 -0 -0 -0 -0 -0 -0 -0 -0 -0 -0 -0 -0 -0 -0 -0 -0 -0 -0 -0 -0 -0 -0 -0 -0 -0 -0 -0 -0 -0 -0 -0 -0 -0 -0 -1 -0 -0 -0 -0 -0 -0 -0
Wind_Speed
10 10 11 15 16 16 17 16 16 18 16 15 11 10 9 13 13 17 16 11 14 18 19 20 22 21 20 20 20 19 19 21 23 23 24 26 25 24 25 24 24 25 25 26 26 26 26 26 26
8 9 13 15 16 17 18 16 18 16 15 14 11 11 11 12 14 14 13 10 14 15 18 18 21 22 21 21 21 20 20 21 23 24 24 24 23 23 23 23 23 25 25 26 26 27 28 28 27
5 10 14 15 15 15 12 13 16 15 14 13 15 14 13 13 13 8 10 10 12 14 15 16 20 21 20 21 20 20 20 22 23 23 22 21 20 20 21 22 23 24 25 26 27 27 25 25 25
7 12 14 17 14 14 13 12 16 13 14 13 15 16 14 16 11 7 9 11 11 13 14 16 18 21 19 21 21 22 23 23 22 21 19 17 15 15 20 21 22 24 24 25 26 25 24 23 21
12 13 16 18 17 16 14 14 11 9 13 11 11 13 14 13 11 7 9 10 10 13 12 15 17 20 18 21 21 22 22 21 20 17 17 13 9 11 15 19 22 22 24 24 25 23 22 21 20
11 16 16 15 16 15 15 12 8 8 10 11 10 10 11 10 7 6 9 8 9 12 12 13 17 19 18 19 20 20 19 19 19 16 13 7 3 3 10 19 21 22 22 24 23 22 22 21 21
13 15 17 18 19 19 17 10 8 7 8 9 12 11 12 9 11 13 15 12 10 11 11 12 17 19 16 17 19 18 17 16 15 13 5 1 2 3 6 4 9 13 11 17 11 23 22 22 22
13 16 18 19 18 21 15 11 12 1 3 9 7 10 12 4 13 16 11 12 15 14 14 13 15 19 18 17 18 17 17 14 9 6 0 3 4 5 5 10 10 10 9 7 7 13 19 20 21
12 14 18 19 17 18 15 13 10 8 3 3 4 5 15 7 11 13 19 16 15 15 15 14 14 16 19 17 19 19 16 13 5 1 4 4 6 5 5 9 10 10 9 9 10 11 10 9 10
12 15 16 21 19 17 15 12 14 13 10 4 8 3 12 5 7 13 15 14 17 15 16 15 16 16 17 16 21 24 20 18 11 2 8 11 10 9 8 10 12 11 11 11 12 8 7 8 9
15 17 16 18 17 18 16 17 15 15 15 13 15 3 2 2 7 13 14 20 18 15 12 12 12 13 16 15 18 21 21 20 18 8 7 12 12 11 10 9 11 11 12 11 8 8 9 9 10
17 18 13 19 17 17 15 18 19 10 10 23 27 11 2 7 14 21 16 14 9 19 13 11 11 10 14 13 15 16 19 19 16 11 5 12 12 13 14 11 10 13 13 9 8 9 9 9 10
16 21 17 17 20 19 20 19 20 16 23 25 30 7 7 16 20 23 23 14 15 19 13 13 13 11 9 9 12 12 13 13 13 6 6 10 13 14 14 11 9 12 12 10 9 8 10 11 11
16 18 23 23 23 20 18 20 17 22 27 30 11 14 4 2 4 4 8 10 17 19 12 13 14 13 11 10 8 7 7 6 5 4 8 11 16 17 15 11 10 9 11 12 9 10 11 12 12
17 22 25 23 22 19 15 17 17 28 26 26 29 28 26 23 25 20 13 9 7 22 18 14 15 14 13 12 11 9 8 9 11 12 14 15 15 16 16 14 12 10 9 11 13 12 13 14 14
16 16 19 19 17 15 13 15 25 29 26 23 20 20 22 24 22 22 16 12 8 16 26 21 19 16 15 15 13 12 12 14 20 19 19 17 17 16 14 15 15 12 10 12 13 14 16 16 15
17 19 20 19 17 17 17 22 28 25 21 19 18 18 18 21 22 22 21 19 15 13 22 25 24 20 17 17 16 14 13 14 16 20 21 20 18 16 15 13 14 13 14 16 17 17 18 17 14
18 18 18 18 20 19 18 22 22 21 19 19 19 19 21 22 24 26 26 24 16 12 19 24 27 33 27 22 19 17 15 14 16 17 18 17 17 15 17 17 14 14 16 17 18 17 16 16 13
16 18 19 18 17 18 17 18 20 20 20 20 21 21 23 25 26 26 27 27 19 14 17 23 24 29 29 28 23 20 19 19 19 19 18 18 19 18 18 18 16 15 16 17 17 17 15 13 10
19 21 22 18 18 17 16 18 18 20 21 21 23 24 25 26 28 29 28 28 23 17 18 24 27 26 27 28 31 32 33 30 27 25 23 20 20 20 20 19 19 18 18 18 17 16 16 16 10
22 23 24 23 21 16 18 20 20 21 22 22 24 24 25 26 28 29 30 32 27 19 19 23 25 27 27 29 31 32 31 33 31 26 24 22 20 20 22 22 21 20 19 20 19 18 17 17 16
27 21 27 26 23 27 21 30 22 24 23 23 26 27 27 28 29 29 32 34 31 21 18 18 21 25 29 30 33 35 36 34 37 32 28 26 24 23 22 22 22 21 21 20 20 19 19 19 19
24 29 26 24 24 23 25 26 26 23 24 26 27 28 28 29 30 32 33 34 24 24 24 23 23 24 28 31 32 37 37 38 35 33 32 30 27 26 24 24 24 23 23 23 22 22 22 23 23
27 22 21 18 17 23 23 24 26 23 25 26 27 28 30 31 31 32 33 32 30 24 24 24 25 28 32 33 34 37 37 37 39 34 37 32 32 29 26 25 25 24 23 23 23 24 24 25 25
26 23 22 22 20 23 21 23 21 17 20 23 27 30 31 31 32 33 33 33 32 27 23 21 21 22 20 21 28 33 32 35 40 35 36 35 34 32 29 27 26 25 24 23 22 22 21 20 21
23 23 23 26 25 23 22 22 20 15 18 22 26 29 31 32 32 33 32 30 28 25 23 20 18 18 18 19 19 21 25 27 28 24 25 28 33 30 25 27 27 24 22 21 19 17 16 15 17
21 22 20 20 21 24 21 19 16 13 19 23 27 29 32 33 33 32 30 28 27 24 21 19 18 17 18 17 16 16 17 20 20 19 21 24 26 28 19 22 25 23 20 19 18 15 13 12 14
20 17 21 21 25 28 22 23 24 15 21 26 28 30 32 32 31 30 28 26 26 26 25 24 22 20 19 18 15 13 11 10 12 15 18 13 18 20 20 16 20 17 18 16 14 13 12 11 13
20 20 20 19 21 25 27 23 17 16 19 23 26 27 28 29 29 29 28 26 25 25 26 26 24 22 20 19 18 16 12 12 11 11 15 11 9 15 20 16 18 19 18 15 11 9 10 10 11
18 19 18 22 23 20 23 24 14 16 17 20 22 22 24 25 27 26 25 25 25 25 25 23 22 22 21 20 19 18 17 14 12 10 8 8 9 7 11 12 12 13 12 12 12 9 7 9 9
Wind_Direction
80 53 3 341 326 318 309 318 334 341 353 358 13 21 21 15 9 339 5 63 96 109 113 114 117 111 107 104 103 101 100 101 105 102 101 104 97 92 90 87 85 89 92 98 98 92 91 90 87
78 37 1 336 312 305 310 325 322 333 347 4 12 5 360 344 351 3 33 59 102 106 113 115 119 117 111 110 107 105 103 104 107 106 105 103 95 93 89 87 87 90 94 102 101 109 112 114 120
36 354 329 322 312 311 327 338 333 332 338 354 351 351 346 347 349 34 28 91 101 108 112 114 121 120 115 114 110 108 107 108 109 108 105 100 91 87 88 88 87 90 97 102 119 131 142 143 140
325 320 323 305 306 314 324 331 339 346 346 346 346 347 357 337 356 29 93 109 108 114 118 119 122 124 119 119 115 116 115 114 111 108 102 95 84 79 86 87 91 97 99 103 120 149 155 157 159
300 305 301 299 296 302 313 324 338 1 354 6 9 7 6 11 9 71 110 120 118 120 121 123 125 128 123 124 122 121 118 115 111 105 103 89 70 69 75 86 98 99 111 115 139 165 171 168 170
298 288 295 292 296 303 309 329 351 350 356 3 14 21 13 36 79 105 126 129 125 128 128 126 130 131 128 129 127 124 121 117 115 107 99 80 39 5 59 96 107 113 116 150 156 175 174 173 171
291 286 288 294 296 295 299 321 324 340 351 354 357 7 19 117 113 131 140 129 133 133 134 131 133 134 131 131 133 129 125 120 114 107 89 351 324 11 35 42 267 238 250 216 236 161 162 166 162
293 290 289 293 295 290 304 313 327 35 11 10 23 6 8 116 144 146 143 138 137 141 141 138 135 139 138 137 138 136 132 125 116 107 329 292 292 306 314 269 268 272 274 306 310 234 202 186 181
299 291 288 289 295 295 302 300 324 351 6 73 111 11 348 63 136 142 149 145 143 146 150 147 142 141 142 140 143 143 139 133 128 225 277 289 293 313 318 288 279 279 278 277 275 272 283 274 260
293 290 292 291 293 299 299 301 309 315 323 199 195 170 343 58 139 152 151 154 154 154 158 156 150 146 145 141 145 151 147 145 135 207 269 269 277 282 293 287 273 278 276 274 268 297 324 340 339
297 292 300 298 298 297 300 297 304 305 306 210 211 178 96 91 153 164 164 165 162 154 166 171 163 155 151 148 146 150 151 151 147 137 268 267 271 277 283 290 282 285 283 287 299 298 294 312 322
300 299 304 303 299 300 301 302 298 270 234 222 232 206 139 164 164 167 168 169 184 165 171 182 179 175 160 154 154 152 154 154 150 145 261 266 269 269 272 283 290 278 281 294 301 303 309 317 324
300 292 303 303 298 300 301 301 302 305 219 219 279 324 170 162 165 173 177 169 173 173 179 186 186 187 192 175 160 160 160 158 154 157 256 267 268 267 273 284 290 284 284 291 293 304 308 314 323
309 299 292 292 293 297 304 304 311 311 285 228 210 209 292 239 272 201 175 174 177 178 194 198 198 204 207 208 192 202 192 199 218 221 261 264 265 266 271 280 283 286 283 282 290 293 301 309 314
312 303 300 300 299 301 307 309 311 306 308 301 277 276 274 279 273 278 275 269 236 256 253 233 224 212 217 224 228 231 238 248 256 262 263 263 265 267 271 273 274 279 283 280 278 284 289 295 298
321 321 315 324 319 315 315 310 310 314 310 313 306 299 288 285 285 280 285 278 251 262 255 251 241 227 223 233 232 239 246 254 258 260 262 262 263 265 269 271 270 273 276 273 275 278 283 290 296
325 313 313 314 326 319 316 304 313 325 329 326 322 314 312 299 295 291 291 286 277 259 257 252 248 242 229 236 242 235 242 249 256 259 260 261 262 263 264 269 270 267 269 269 271 277 282 288 296
328 326 323 317 321 322 315 309 319 333 338 335 329 318 312 306 297 295 290 285 285 269 258 255 252 249 252 251 246 249 241 240 252 256 257 258 259 258 261 265 264 265 267 269 273 278 283 287 294
341 334 326 326 332 324 324 323 324 331 338 339 336 327 315 304 301 299 295 290 284 272 262 257 254 253 254 254 247 243 239 248 252 253 253 253 256 256 258 261 261 263 267 270 274 278 281 285 289
332 324 322 325 332 323 323 323 329 336 335 335 332 331 326 311 303 301 299 297 289 275 265 263 259 253 253 256 256 257 257 257 257 257 255 251 249 250 253 255 258 262 266 269 270 272 274 280 273
323 319 316 313 320 320 314 309 316 324 329 330 333 330 329 324 313 309 303 293 295 282 272 267 263 261 257 257 258 260 259 258 257 253 250 247 245 247 251 254 256 258 264 266 267 266 266 272 270
317 324 314 309 308 299 306 294 303 311 318 326 326 326 323 319 318 318 311 302 287 288 280 273 269 268 266 263 259 259 258 257 256 254 252 248 247 246 248 249 253 257 262 265 266 264 265 270 270
321 319 318 314 305 305 307 298 301 306 308 315 320 323 324 324 318 315 315 315 310 294 288 279 271 274 270 271 264 260 257 259 262 257 253 252 251 250 248 250 252 255 260 264 264 265 267 270 272
330 333 334 333 320 303 309 305 302 302 306 312 320 323 323 322 322 322 320 320 311 306 301 297 289 288 275 276 273 266 256 259 258 257 254 251 251 251 250 251 252 255 259 262 264 268 269 270 271
336 336 325 321 318 311 322 314 312 319 319 319 318 321 324 325 324 322 322 321 319 312 307 307 305 305 306 300 287 272 272 265 265 259 255 252 251 250 250 250 251 254 257 260 264 267 268 268 268
338 339 327 313 314 316 323 312 315 326 330 327 326 325 324 324 326 325 324 324 325 323 323 321 315 317 314 314 304 292 277 278 273 276 268 268 263 253 256 260 254 249 253 256 259 262 267 266 269
338 334 339 331 326 318 320 323 331 332 328 330 330 329 328 327 325 325 324 323 323 327 326 330 334 330 327 326 323 302 290 288 283 284 264 278 276 271 262 268 268 257 245 248 252 255 264 265 269
338 345 329 327 317 312 316 317 315 316 320 324 325 328 330 332 332 332 329 321 319 316 316 317 321 323 321 322 324 327 316 303 304 294 276 277 271 280 278 262 270 265 265 248 245 249 255 266 278
333 330 332 331 324 316 314 318 337 337 336 334 335 341 342 343 341 336 334 328 321 317 314 310 311 315 313 318 317 317 318 321 325 308 295 297 270 276 272 272 266 267 260 261 250 264 254 261 264
338 332 331 320 318 319 318 319 348 348 347 347 348 354 352 350 350 351 353 341 332 322 315 314 312 310 313 312 313 316 315 313 317 325 357 328 302 290 278 273 261 261 261 263 265 264 261 238 256